Location: Newark
(43.0000°N, 1.6781°W)
Time: 11:11:09
(UTC+00:00)

Explorer 7 - Pass Details

Date: 23 April 2021
Orbit: 484 x 677 km, 50.3° (Epoch: 07 May)

Event Time Altitude Azimuth Distance (km) Brightness Sun altitude
Rises 01:43:22 0° 294° (WNW) 2,848 - -30.1°
Reaches altitude 10° 01:45:48 10° 284° (WNW) 1,975 - -29.8°
Maximum altitude 01:49:49 31° 222° (SW) 1,118 - -29.5°
Drops below altitude 10° 01:53:59 10° 161° (SSE) 2,056 - -29.1°
Sets 01:56:33 0° 151° (SSE) 2,985 - -28.9°
